Location: Unspecified
(44.0704°N, 88.6889°W)
Time: 17:27:52
(UTC+02:00)

deb Explorer IX - Pass Details

Date: 16 June 2019
Orbit: 539 x 1112 km, 38.8° (Epoch: 21 July)

Event Time Altitude Azimuth Distance (km) Brightness Sun altitude
Rises 04:14:45 0° 273° (W) 3,754 ? -5.8°
Reaches altitude 10° 04:17:46 10° 266° (W) 2,723 ? -6.2°
Maximum altitude 04:23:43 38° 200° (SSW) 1,312 ? -7.0°
Drops below altitude 10° 04:28:52 10° 134° (SE) 2,345 ? -7.7°
Enters shadow 04:29:00 - 133° (SE) 2,389 ? -7.7°
